Total_Precipitation_Accumulation
0.81 0.81 0.85 0.86 0.91 0.98 1.05 1.06 1.11 1.16 1.22 1.21 1.17 1.13 1.03 0.97 0.97 1.00 1.01 1.11 1.13 1.12 1.19 1.22 1.28 1.39 1.53 1.58 1.62 1.68 1.89 2.06 1.94 1.84 1.71 1.58 1.45 1.29 1.13 1.12 1.14 1.07 0.90
0.77 0.78 0.83 0.85 0.85 0.86 0.89 0.88 0.90 0.95 0.97 0.96 0.95 1.02 1.04 1.03 1.00 0.99 0.96 0.95 1.01 1.03 1.09 1.18 1.24 1.36 1.48 1.46 1.54 1.62 1.81 2.04 2.11 2.24 2.28 2.03 1.74 1.51 1.39 1.24 1.01 0.91 0.92
0.70 0.76 0.84 0.84 0.81 0.85 0.88 0.87 0.86 0.86 0.87 0.85 0.86 0.89 0.91 0.99 1.10 1.12 1.10 1.10 1.12 1.04 1.09 1.19 1.18 1.22 1.30 1.33 1.44 1.57 1.72 1.87 2.05 2.15 2.28 2.11 1.92 1.63 1.63 1.44 1.19 1.11 0.90
0.60 0.76 0.92 0.98 0.97 0.98 0.94 0.94 0.91 0.87 0.88 0.86 0.81 0.82 0.84 0.84 0.92 1.05 1.11 1.11 1.08 1.03 1.03 1.03 1.00 1.02 1.11 1.20 1.26 1.42 1.57 1.71 1.83 1.88 2.01 2.08 2.10 2.07 2.01 1.78 1.61 1.41 1.14
0.61 0.84 0.97 0.95 0.90 0.89 0.87 0.94 0.92 0.84 0.80 0.84 0.76 0.73 0.79 0.82 0.80 0.82 0.94 0.97 0.97 0.96 0.97 0.90 0.79 0.79 0.83 0.87 0.94 1.18 1.35 1.50 1.65 1.75 1.88 2.05 2.17 2.30 2.16 2.03 1.90 1.77 1.52
0.59 0.70 0.75 0.81 0.84 0.81 0.75 0.72 0.75 0.78 0.77 0.76 0.69 0.68 0.69 0.62 0.63 0.60 0.62 0.71 0.77 0.80 0.84 0.86 0.77 0.66 0.61 0.64 0.66 0.79 0.97 1.13 1.37 1.63 1.81 2.03 2.13 2.10 2.21 2.20 2.13 1.99 1.86
0.54 0.58 0.65 0.78 0.81 0.75 0.64 0.66 0.73 0.76 0.75 0.73 0.66 0.62 0.62 0.60 0.48 0.43 0.43 0.53 0.63 0.66 0.70 0.76 0.67 0.59 0.58 0.54 0.59 0.66 0.71 0.78 0.92 1.25 1.53 1.65 1.68 1.69 1.93 2.12 2.12 2.05 2.01
0.57 0.63 0.67 0.80 0.81 0.75 0.71 0.70 0.72 0.72 0.72 0.73 0.67 0.63 0.67 0.62 0.48 0.40 0.36 0.36 0.49 0.59 0.62 0.67 0.69 0.70 0.62 0.60 0.61 0.66 0.64 0.64 0.67 0.75 0.91 1.06 1.24 1.40 1.62 1.91 2.15 2.12 2.13
0.57 0.67 0.76 0.86 0.87 0.82 0.78 0.76 0.75 0.72 0.67 0.68 0.69 0.69 0.71 0.68 0.49 0.37 0.35 0.42 0.53 0.58 0.61 0.61 0.65 0.70 0.64 0.53 0.54 0.61 0.65 0.67 0.59 0.60 0.64 0.76 0.91 1.06 1.25 1.50 1.76 2.04 2.29
0.67 0.75 0.81 0.87 0.91 0.88 0.87 0.86 0.82 0.80 0.72 0.66 0.67 0.71 0.71 0.75 0.55 0.33 0.30 0.43 0.60 0.66 0.75 0.73 0.59 0.55 0.54 0.42 0.46 0.57 0.59 0.61 0.56 0.58 0.60 0.62 0.68 0.81 0.94 1.15 1.35 1.59 1.85
0.69 0.80 0.92 1.00 0.96 0.92 0.95 0.97 0.94 0.90 0.89 0.81 0.73 0.73 0.74 0.70 0.56 0.34 0.30 0.42 0.61 0.74 0.76 0.79 0.73 0.52 0.43 0.39 0.37 0.46 0.52 0.51 0.57 0.64 0.71 0.73 0.74 0.80 0.86 0.96 1.19 1.32 1.39
0.76 0.86 0.99 1.09 0.93 0.85 1.01 1.06 1.05 1.07 1.06 1.01 0.95 0.85 0.82 0.80 0.59 0.43 0.36 0.39 0.52 0.72 0.85 0.85 0.72 0.53 0.44 0.40 0.35 0.37 0.36 0.35 0.44 0.56 0.65 0.71 0.74 0.75 0.82 0.92 1.09 1.25 1.36
0.86 0.97 1.01 1.03 1.08 1.10 1.09 1.11 1.12 1.12 1.13 1.09 1.07 1.01 0.96 0.96 0.87 0.57 0.46 0.43 0.49 0.62 0.73 0.79 0.71 0.50 0.43 0.44 0.43 0.37 0.33 0.33 0.41 0.48 0.55 0.63 0.66 0.71 0.83 0.98 1.17 1.27 1.30
0.99 1.04 1.07 1.09 1.12 1.18 1.28 1.24 1.20 1.14 1.16 1.18 1.13 1.12 1.10 1.10 1.04 0.85 0.70 0.60 0.57 0.58 0.63 0.65 0.68 0.61 0.50 0.52 0.53 0.45 0.39 0.43 0.47 0.48 0.53 0.60 0.66 0.74 0.86 0.94 1.06 1.19 1.30
1.14 1.14 1.16 1.17 1.20 1.25 1.28 1.24 1.17 1.13 1.04 1.09 1.11 1.10 1.12 1.11 1.00 0.88 0.84 0.82 0.77 0.72 0.69 0.78 0.79 0.84 0.76 0.72 0.74 0.69 0.64 0.67 0.65 0.61 0.61 0.64 0.70 0.75 0.81 0.91 1.01 1.07 1.16
1.30 1.21 1.19 1.16 1.20 1.24 1.24 1.10 0.89 0.82 0.75 0.74 0.78 0.81 0.80 0.76 0.69 0.65 0.68 0.68 0.67 0.68 0.67 0.81 0.91 0.95 0.93 0.94 0.93 0.91 0.89 0.84 0.81 0.82 0.78 0.74 0.76 0.80 0.81 0.86 0.98 1.04 1.04
1.34 1.28 1.18 1.10 1.09 1.08 1.13 1.15 1.07 0.93 0.84 0.74 0.62 0.58 0.61 0.56 0.51 0.52 0.58 0.62 0.63 0.65 0.69 0.81 0.95 1.01 1.02 1.03 0.98 0.94 0.96 0.91 0.90 0.91 0.89 0.88 0.89 0.92 0.90 0.89 0.96 1.03 1.01
1.27 1.21 1.14 1.10 1.06 1.01 1.01 1.05 1.05 1.09 1.10 0.98 0.78 0.67 0.60 0.50 0.45 0.45 0.53 0.62 0.67 0.66 0.76 0.90 1.03 1.03 1.06 1.07 1.01 0.97 0.98 0.94 0.93 0.93 0.93 0.91 0.91 0.97 0.98 0.94 0.93 0.98 1.00
1.27 1.17 1.12 1.07 1.06 1.03 1.01 1.01 1.03 1.09 1.16 1.17 1.02 0.86 0.71 0.52 0.45 0.48 0.52 0.59 0.71 0.81 0.90 1.01 1.03 1.02 1.05 1.04 0.98 0.96 1.00 0.98 0.95 0.96 0.94 0.94 0.94 1.01 1.04 1.04 1.00 1.03 1.00
1.29 1.18 1.13 1.05 1.01 1.03 1.07 1.03 1.01 1.09 1.12 1.10 1.05 0.88 0.68 0.60 0.61 0.62 0.60 0.65 0.75 0.83 0.88 0.92 0.90 0.89 0.91 0.92 0.93 0.96 1.03 1.02 1.02 1.01 0.96 0.93 0.95 1.00 1.02 1.03 1.00 0.98 0.98
1.21 1.15 1.07 0.96 0.91 0.93 1.00 1.00 0.95 1.00 1.03 1.00 0.92 0.78 0.62 0.57 0.65 0.72 0.75 0.74 0.75 0.77 0.80 0.84 0.85 0.83 0.81 0.86 0.90 0.93 0.98 1.01 0.98 0.94 0.91 0.90 0.90 0.95 0.95 0.94 0.95 0.92 0.92
1.17 1.15 1.04 0.94 0.93 0.91 0.92 0.94 0.95 0.95 0.94 0.93 0.83 0.69 0.62 0.60 0.63 0.66 0.66 0.66 0.66 0.70 0.73 0.82 0.85 0.83 0.81 0.86 0.89 0.89 0.88 0.86 0.85 0.84 0.82 0.80 0.83 0.88 0.89 0.89 0.92 0.91 0.90
1.13 1.13 1.09 1.00 0.95 0.95 0.94 0.95 0.97 0.92 0.88 0.88 0.81 0.70 0.65 0.67 0.61 0.60 0.58 0.56 0.58 0.62 0.64 0.68 0.72 0.71 0.71 0.72 0.75 0.76 0.73 0.72 0.71 0.66 0.67 0.70 0.72 0.76 0.78 0.79 0.85 0.88 0.85
1.09 1.10 1.05 0.97 0.93 0.91 0.91 0.93 0.91 0.82 0.74 0.73 0.71 0.65 0.64 0.65 0.59 0.55 0.48 0.47 0.51 0.50 0.50 0.51 0.51 0.50 0.54 0.59 0.63 0.64 0.60 0.57 0.58 0.59 0.59 0.63 0.64 0.66 0.68 0.71 0.78 0.82 0.81
1.07 1.08 1.06 1.00 0.94 0.86 0.81 0.81 0.77 0.71 0.63 0.59 0.59 0.57 0.58 0.57 0.54 0.48 0.42 0.44 0.48 0.47 0.42 0.42 0.43 0.44 0.45 0.46 0.48 0.50 0.50 0.51 0.54 0.52 0.51 0.55 0.58 0.64 0.65 0.70 0.78 0.84 0.83
0.99 0.96 0.91 0.86 0.79 0.72 0.70 0.70 0.67 0.59 0.54 0.50 0.49 0.50 0.50 0.50 0.50 0.46 0.41 0.43 0.45 0.44 0.40 0.38 0.39 0.42 0.43 0.41 0.39 0.39 0.40 0.41 0.46 0.47 0.45 0.46 0.55 0.64 0.65 0.63 0.63 0.72 0.75